CW2220 Weather Reports


Display with metric or nautical units.
time (UTC)temp
F
wind
direction
speed
MPH
gust
MPH
rain 1hr
in
rain 24hr
in
rain mn
in
humidity
%
barometer
mb
20260503200036 76 86 3.0 12.0 0.00 0.00 0.00 38 1020.3
20260503194542 77 5 2.0 9.0 0.00 0.00 0.00 43 1020.6
20260503193036 77 338 2.0 7.0 0.00 0.00 0.00 40 1020.9
20260503191535 75 310 2.0 7.0 0.00 0.00 0.00 42 1021.2
20260503190044 76 294 1.0 9.0 0.00 0.00 0.00 41 1021.2
20260503184541 78 5 2.0 9.0 0.00 0.00 0.00 39 1021.5
20260503183049 75 360 4.0 9.0 0.00 0.00 0.00 44 1021.6
20260503181536 75 5 2.0 6.0 0.00 0.00 0.00 44 1021.9
20260503180046 75 40 5.0 11.0 0.00 0.00 0.00 39 1021.9
20260503174534 75 15 4.0 9.0 0.00 0.00 0.00 41 1022.0
20260503173100 74 5 2.0 12.0 0.00 0.00 0.00 42 1022.2
20260503171542 74 345 4.0 8.0 0.00 0.00 0.00 42 1022.2
20260503081544 54 0 0.0 0.0 0.00 0.00 0.00 85 1020.4
20260503071546 56 0 0.0 0.0 0.00 0.01 0.00 78 1020.1
20260503054542 60 13 1.0 4.0 0.00 0.17 0.00 69 1019.6
20260503053035 60 15 2.0 4.0 0.00 0.17 0.00 71 1019.5
20260503051535 60 5 1.0 4.0 0.00 0.17 0.00 72 1019.4
20260503050035 60 26 1.0 4.0 0.00 0.17 0.00 73 1019.5
20260503044541 59 355 1.0 3.0 0.00 0.26 0.17 73 1019.4
20260503043038 60 0 0.0 1.0 0.00 0.26 0.17 73 1019.4
20260503041536 60 5 1.0 2.0 0.00 0.26 0.17 71 1019.4
20260503040036 61 0 0.0 3.0 0.00 0.26 0.17 70 1019.4
20260503034534 62 0 1.0 5.0 0.00 0.28 0.17 69 1019.5
20260503033046 63 355 2.0 7.0 0.00 0.28 0.17 68 1019.2
20260503031538 63 39 3.0 8.0 0.00 0.28 0.17 68 1019.1
20260503030035 63 40 3.0 7.0 0.00 0.28 0.17 68 1018.8
20260503024539 63 31 3.0 8.0 0.00 0.28 0.17 68 1018.8
20260503023034 63 355 2.0 7.0 0.00 0.28 0.17 68 1018.6
20260503021543 64 12 2.0 7.0 0.00 0.28 0.17 67 1018.6
20260503020042 64 45 3.0 5.0 0.00 0.28 0.17 66 1018.6
20260503014605 64 5 2.0 5.0 0.00 0.28 0.17 65 1018.5
20260503013039 65 360 1.0 4.0 0.00 0.28 0.17 64 1018.3
20260503011540 66 11 3.0 7.0 0.00 0.28 0.17 61 1018.1
20260503010050 67 344 4.0 9.0 0.00 0.28 0.17 57 1017.9
20260503004550 67 355 4.0 9.0 0.00 0.28 0.17 55 1017.9
20260503003036 68 333 4.0 10.0 0.00 0.28 0.17 54 1017.8
20260503001539 69 12 6.0 12.0 0.00 0.28 0.17 52 1017.7
20260503000037 70 17 7.0 15.0 0.00 0.28 0.17 50 1017.5
20260502234536 70 355 7.0 15.0 0.00 0.49 0.17 49 1017.4
20260502233039 71 336 5.0 18.0 0.00 0.49 0.17 51 1017.2
20260502231538 71 327 5.0 17.0 0.00 0.49 0.17 52 1016.9
20260502230036 71 337 7.0 16.0 0.00 0.49 0.17 51 1016.7
20260502224534 72 24 7.0 17.0 0.00 0.52 0.17 51 1016.5
20260502223037 72 342 6.0 16.0 0.00 0.52 0.17 50 1016.4
20260502221539 72 17 8.0 15.0 0.00 0.52 0.17 52 1016.4
20260502220032 72 9 9.0 17.0 0.00 0.52 0.17 50 1016.5
20260502214534 72 351 7.0 18.0 0.00 0.65 0.17 51 1016.3
20260502213034 72 61 8.0 15.0 0.00 0.65 0.17 50 1016.3
20260502211541 72 299 10.0 18.0 0.00 0.65 0.17 47 1016.4
20260502210037 71 351 9.0 18.0 0.00 0.65 0.17 52 1016.4
20260502204541 72 302 6.0 15.0 0.00 0.90 0.17 53 1016.6
20260502203039 72 340 6.0 18.0 0.00 0.90 0.17 55 1016.9
20260502201535 71 350 8.0 19.0 0.00 0.90 0.17 55 1017.0